GW5467 Weather Reports


time (UTC)temp
C
wind
direction
speed
KPH
gust
KPH
rain 1hr
cm
rain 24hr
cm
rain mn
cm
humidity
%
barometer
mb
20260906232745 18 346 8.0 9.7 0.00 0.15 0.15 73 1016.6
20260906232239 18 335 4.8 4.8 0.00 0.15 0.15 73 1016.6
20260906231734 18 285 3.2 4.8 0.00 0.15 0.15 73 1016.9
20260906231230 18 285 3.2 3.2 0.00 0.15 0.15 74 1016.9
20260906230729 18 321 6.4 6.4 0.00 0.15 0.15 72 1017.1
20260906230224 18 311 3.2 4.8 0.00 0.15 0.15 74 1017.0
20260906225722 17 315 3.2 4.8 0.00 0.15 0.15 76 1017.0
20260906225219 17 289 3.2 4.8 0.00 0.15 0.15 76 1017.1
20260906224713 17 307 6.4 9.7 0.00 0.15 0.15 77 1017.3
20260906224210 16 295 4.8 4.8 0.00 0.15 0.15 77 1017.2
20260906223707 17 292 4.8 6.4 0.00 0.15 0.15 76 1017.4
20260906223207 17 279 3.2 3.2 0.00 0.15 0.15 77 1017.4
20260906222704 17 249 6.4 6.4 0.00 0.15 0.15 77 1017.3
20260906222203 17 284 6.4 6.4 0.00 0.15 0.15 77 1017.4
20260906221701 17 285 3.2 4.8 0.00 0.15 0.15 79 1017.4
20260906221155 16 258 9.7 11.3 0.00 0.15 0.15 78 1017.4
20260906220651 16 314 6.4 6.4 0.00 0.15 0.15 79 1017.4
20260906220147 16 275 3.2 4.8 0.00 0.15 0.15 80 1017.4
20260906215646 16 279 6.4 6.4 0.00 0.15 0.15 80 1017.5
20260906215144 16 308 3.2 4.8 0.00 0.15 0.15 82 1017.6
20260906214643 16 244 4.8 4.8 0.00 0.15 0.15 81 1017.4
20260906214138 16 274 4.8 4.8 0.00 0.15 0.15 82 1017.4
20260906213637 16 251 6.4 9.7 0.00 0.15 0.15 82 1017.3
20260906213132 16 234 6.4 9.7 0.00 0.15 0.15 82 1017.3
20260906212629 16 250 6.4 6.4 0.00 0.15 0.15 82 1017.4
20260906212125 17 252 4.8 6.4 0.00 0.15 0.15 81 1017.2
20260906211624 17 275 3.2 3.2 0.00 0.15 0.15 80 1017.1
20260906211120 17 310 6.4 6.4 0.00 0.15 0.15 77 1017.0
20260906210616 17 79 4.8 4.8 0.00 0.15 0.15 77 1017.0
20260906210110 17 38 6.4 9.7 0.00 0.15 0.15 77 1017.3
20260906205606 17 66 3.2 4.8 0.00 0.15 0.15 78 1017.2
20260906205102 17 56 4.8 4.8 0.00 0.15 0.15 77 1017.3
20260906204601 17 50 6.4 6.4 0.00 0.15 0.15 76 1017.3
20260906204056 17 86 6.4 6.4 0.00 0.15 0.15 76 1017.1
20260906203555 17 89 9.7 11.3 0.00 0.15 0.15 76 1017.5
20260906203051 17 85 8.0 11.3 0.00 0.15 0.15 76 1017.3
20260906202547 17 91 8.0 11.3 0.00 0.15 0.15 76 1017.2
20260906202048 17 109 3.2 3.2 0.00 0.15 0.15 77 1017.2
20260906201548 17 65 4.8 6.4 0.00 0.15 0.15 76 1017.4
20260906201047 17 80 8.0 11.3 0.00 0.15 0.15 76 1017.5
20260906200543 17 89 9.7 11.3 0.00 0.15 0.15 75 1017.4
20260906200039 17 75 9.7 11.3 0.00 0.15 0.15 75 1017.5
20260906195534 17 98 6.4 6.4 0.00 0.15 0.15 76 1017.3
20260906195031 17 86 6.4 9.7 0.00 0.15 0.15 75 1017.3
20260906194526 17 86 4.8 6.4 0.00 0.15 0.15 76 1017.6
20260906194022 17 75 4.8 4.8 0.00 0.15 0.15 75 1017.4
20260906193521 17 91 3.2 3.2 0.00 0.15 0.15 75 1017.7
20260906193017 17 92 3.2 3.2 0.00 0.15 0.15 73 1017.5
20260906192512 17 115 3.2 4.8 0.00 0.15 0.15 74 1017.5
20260906192011 17 130 6.4 6.4 0.00 0.15 0.15 74 1017.6
20260906191506 17 91 1.6 1.6 0.00 0.15 0.15 73 1017.5
20260906191005 17 73 6.4 9.7 0.00 0.15 0.15 74 1017.7
20260906190505 17 75 9.7 11.3 0.00 0.15 0.15 74 1017.5
20260906185959 17 79 3.2 4.8 0.00 0.15 0.15 73 1017.4
20260906185458 17 84 4.8 9.7 0.00 0.15 0.15 74 1017.7
20260906184957 17 66 4.8 6.4 0.00 0.15 0.15 77 1017.6
20260906184453 17 67 9.7 12.9 0.00 0.15 0.15 76 1017.7
20260906183948 17 88 9.7 12.9 0.00 0.15 0.15 78 1017.7
20260906183444 17 90 4.8 4.8 0.00 0.15 0.15 81 1017.5
20260906182940 16 79 9.7 12.9 0.00 0.15 0.15 82 1017.4
20260906182435 16 86 6.4 9.7 0.00 0.15 0.15 82 1017.4
20260906181931 16 72 8.0 9.7 0.00 0.15 0.15 85 1017.7
20260906181427 16 54 4.8 6.4 0.00 0.15 0.15 85 1017.8
20260906180922 16 33 8.0 9.7 0.00 0.15 0.15 86 1017.8
20260906180417 15 88 8.0 11.3 0.00 0.15 0.15 86 1018.1
20260906175915 15 62 4.8 9.7 0.00 0.15 0.15 87 1018.1
20260906175410 15 7 9.7 11.3 0.00 0.15 0.15 87 1018.2
20260906174908 14 66 11.3 12.9 0.00 0.15 0.15 90 1018.2
20260906174408 13 9 4.8 6.4 0.00 0.15 0.15 91 1018.3
20260906173903 13 329 6.4 9.7 0.00 0.15 0.15 92 1018.5
20260906173358 13 72 9.7 12.9 0.00 0.15 0.15 92 1018.6
20260906172857 13 57 11.3 14.5 0.13 0.15 0.15 92 1018.7
20260906172354 13 47 6.4 9.7 0.13 0.15 0.15 93 1018.6
20260906171848 12 70 6.4 9.7 0.00 0.13 0.13 93 1018.7
20260906171343 12 0 8.0 9.7 0.00 0.13 0.13 93 1019.4
20260906170839 12 327 9.7 12.9 0.18 0.13 0.13 93 1019.8
20260906170335 12 322 12.9 16.1 0.18 0.13 0.13 92 1019.7
20260906165831 12 285 9.7 12.9 0.00 0.10 0.10 92 1019.8
20260906165330 12 330 8.0 11.3 0.00 0.10 0.10 93 1019.7
20260906164825 12 271 3.2 4.8 0.00 0.10 0.10 93 1019.7
20260906164325 13 330 6.4 6.4 0.00 0.10 0.10 94 1019.8
20260906163821 13 248 3.2 3.2 0.00 0.10 0.10 94 1019.7
20260906163317 13 273 1.6 3.2 0.00 0.10 0.10 94 1019.4
20260906162814 13 282 0.0 1.6 0.00 0.10 0.10 94 1019.5
20260906162313 13 359 1.6 1.6 0.00 0.10 0.10 93 1019.4
20260906161808 12 358 4.8 4.8 0.00 0.10 0.10 93 1019.5
20260906161308 12 356 6.4 6.4 0.00 0.10 0.10 93 1019.3
20260906160807 12 346 6.4 6.4 0.00 0.10 0.10 92 1019.3
20260906160301 12 352 9.7 11.3 0.00 0.10 0.10 92 1019.2
20260906155759 12 326 9.7 12.9 0.00 0.10 0.10 93 1019.3
20260906155253 12 349 6.4 6.4 0.18 0.10 0.10 94 1019.5
20260906154749 12 3 8.0 11.3 0.18 0.10 0.10 94 1019.6
20260906154244 11 331 4.8 4.8 0.13 0.08 0.08 93 1019.7
20260906153742 11 337 12.9 14.5 0.13 0.08 0.08 93 1019.9
20260906153237 11 344 9.7 11.3 0.00 0.05 0.05 93 1019.9
20260906152732 11 336 9.7 14.5 0.00 0.05 0.05 93 1019.8
20260906152226 11 326 14.5 16.1 0.00 0.05 0.05 93 1019.7
20260906151726 11 342 12.9 16.1 0.18 0.05 0.05 93 1019.8
20260906151222 11 303 9.7 12.9 0.18 0.05 0.05 94 1019.9
20260906150718 11 313 9.7 11.3 0.00 0.03 0.03 94 1019.8
20260906150212 11 323 11.3 14.5 0.00 0.03 0.03 94 1019.8
20260906145711 11 266 6.4 9.7 0.00 0.03 0.03 94 1020.2
20260906145206 11 350 14.5 17.7 0.00 0.03 0.03 94 1020.1
20260906144706 11 342 14.5 17.7 0.00 0.03 0.03 93 1020.1
20260906144201 11 322 12.9 20.9 0.13 0.03 0.03 93 1020.3
20260906143700 11 328 16.1 20.9 0.13 0.03 0.03 93 1020.4
20260906143158 11 317 16.1 24.1 0.00 0.00 0.00 93 1020.4
20260906142657 11 320 11.3 14.5 0.00 0.00 0.00 93 1020.4
20260906142152 12 288 24.1 33.8 0.00 0.00 0.00 91 1020.7
20260906141651 13 282 9.7 11.3 0.00 0.00 0.00 90 1020.4
20260906141146 13 241 8.0 11.3 0.00 0.00 0.00 88 1020.1
20260906140645 13 309 1.6 3.2 0.00 0.00 0.00 86 1020.2
20260906140141 15 306 3.2 4.8 0.00 0.00 0.00 85 1020.3
20260906135637 15 97 1.6 1.6 0.00 0.00 0.00 85 1019.9
20260906135133 15 71 3.2 4.8 0.00 0.00 0.00 85 1019.7
20260906134630 15 53 6.4 6.4 0.00 0.00 0.00 85 1019.6
20260906134130 15 76 6.4 6.4 0.00 0.00 0.00 84 1019.2
20260906133626 15 74 6.4 9.7 0.00 0.00 0.00 84 1019.4
20260906133120 15 30 6.4 6.4 0.00 0.00 0.00 83 1019.4
20260906132615 15 73 6.4 9.7 0.00 0.00 0.00 82 1019.4
20260906132111 15 87 9.7 11.3 0.00 0.00 0.00 81 1019.3
20260906131607 15 53 8.0 11.3 0.00 0.00 0.00 81 1019.4
20260906131102 15 73 4.8 4.8 0.00 0.00 0.00 80 1019.6
20260906130601 15 4 4.8 4.8 0.00 0.00 0.00 80 1019.6
20260906130057 15 65 3.2 4.8 0.00 0.00 0.00 81 1019.6
20260906125554 15 283 0.0 0.0 0.00 0.00 0.00 81 1019.6
20260906125054 15 38 3.2 3.2 0.00 0.00 0.00 82 1019.6
20260906124550 15 11 4.8 6.4 0.00 0.00 0.00 82 1019.7
20260906124045 15 72 8.0 11.3 0.00 0.00 0.00 81 1019.6
20260906123544 15 16 12.9 16.1 0.00 0.00 0.00 79 1019.4
20260906123039 15 41 14.5 16.1 0.00 0.00 0.00 80 1019.3
20260906122532 15 53 8.0 9.7 0.00 0.00 0.00 80 1019.5
20260906122029 13 357 9.7 12.9 0.00 0.00 0.00 87 1019.8
20260906121525 12 352 12.9 14.5 0.00 0.00 0.00 88 1019.7
20260906121021 13 337 14.5 14.5 0.00 0.00 0.00 88 1019.5
20260906120515 14 345 11.3 12.9 0.00 0.00 0.00 86 1019.7
20260906120014 14 26 6.4 12.9 0.00 0.00 0.00 85 1019.3
20260906115514 14 89 12.9 16.1 0.00 0.00 0.00 85 1019.4
20260906115013 13 74 4.8 4.8 0.00 0.00 0.00 86 1019.6
20260906114508 13 62 3.2 3.2 0.00 0.00 0.00 86 1019.8
20260906114004 13 38 3.2 3.2 0.00 0.00 0.00 85 1019.8
20260906113502 12 299 0.0 1.6 0.00 0.00 0.00 86 1020.1
20260906112958 12 320 1.6 1.6 0.00 0.00 0.00 86 1020.3
20260906112453 12 0 0.0 1.6 0.00 0.00 0.00 85 1019.8
20260906111949 12 54 1.6 1.6 0.00 0.00 0.00 85 1019.9
20260906111448 12 44 3.2 3.2 0.00 0.00 0.00 85 1019.7
20260906110943 12 46 3.2 4.8 0.00 0.00 0.00 84 1019.8
20260906110439 12 6 4.8 6.4 0.00 0.00 0.00 84 1019.5
20260906105937 13 61 4.8 9.7 0.00 0.00 0.00 83 1019.6
20260906105433 13 51 9.7 11.3 0.00 0.00 0.00 83 1019.4
20260906104930 13 62 8.0 11.3 0.00 0.00 0.00 83 1019.6
20260906104428 13 47 6.4 11.3 0.00 0.00 0.00 83 1019.6
20260906103927 13 56 6.4 6.4 0.00 0.00 0.00 82 1019.6
20260906103425 13 50 6.4 9.7 0.00 0.00 0.00 82 1019.8
20260906102921 13 32 6.4 9.7 0.00 0.00 0.00 83 1019.7
20260906102421 13 45 8.0 9.7 0.00 0.00 0.00 83 1019.8
20260906101915 13 73 9.7 14.5 0.00 0.00 0.00 83 1019.8
20260906101411 12 5 9.7 11.3 0.00 0.00 0.00 86 1019.6
20260906100906 12 25 1.6 1.6 0.00 0.00 0.00 89 1019.6
20260906100406 12 1 1.6 1.6 0.00 0.00 0.00 89 1019.8
20260906095900 13 1 3.2 3.2 0.00 0.00 0.00 89 1019.8
20260906095356 13 346 3.2 4.8 0.00 0.00 0.00 89 1019.8
20260906094855 13 2 6.4 9.7 0.00 0.00 0.00 88 1019.7
20260906094350 13 359 8.0 11.3 0.00 0.00 0.00 88 1019.7
20260906093847 13 355 6.4 9.7 0.00 0.00 0.00 88 1019.7
20260906093343 13 8 9.7 16.1 0.00 0.00 0.00 88 1019.8
20260906092843 13 348 8.0 11.3 0.00 0.00 0.00 89 1019.9
20260906092337 12 24 12.9 14.5 0.00 0.00 0.00 90 1020.1
20260906091833 13 41 11.3 14.5 0.00 0.00 0.00 90 1020.2
20260906091329 13 358 16.1 17.7 0.00 0.00 0.00 89 1020.2
20260906090825 13 1 14.5 16.1 0.00 0.00 0.00 89 1020.3
20260906090324 13 356 20.9 24.1 0.00 0.00 0.00 88 1020.4
20260906085825 13 333 20.9 27.4 0.00 0.00 0.00 87 1020.7
20260906085324 13 320 12.9 14.5 0.00 0.00 0.00 87 1020.8
20260906084819 13 331 14.5 16.1 0.00 0.00 0.00 88 1021.1
20260906084318 13 345 19.3 24.1 0.00 0.00 0.00 87 1021.1
20260906083813 13 337 14.5 17.7 0.00 0.00 0.00 86 1021.1
20260906083308 13 350 9.7 12.9 0.00 0.00 0.00 86 1021.2
20260906082803 13 284 19.3 22.5 0.00 0.00 0.00 88 1020.7
20260906082258 12 315 16.1 20.9 0.00 0.00 0.00 90 1020.9
20260906081754 12 315 16.1 20.9 0.00 0.00 0.00 91 1021.5
20260906081249 12 256 16.1 17.7 0.00 0.00 0.00 91 1021.5
20260906080745 12 266 4.8 4.8 0.00 0.00 0.00 90 1021.3
20260906080242 13 297 6.4 6.4 0.00 0.00 0.00 89 1020.7
20260906075741 13 238 1.6 3.2 0.00 0.00 0.00 89 1020.5
20260906075241 13 211 1.6 1.6 0.00 0.00 0.00 88 1020.2
20260906074737 13 296 1.6 3.2 0.00 0.00 0.00 87 1020.4
20260906074236 13 14 6.4 6.4 0.00 0.00 0.00 87 1020.5
20260906073736 13 355 4.8 6.4 0.00 0.00 0.00 87 1020.5
20260906073231 13 13 6.4 9.7 0.00 0.00 0.00 87 1020.5
20260906072726 13 38 6.4 9.7 0.00 0.00 0.00 88 1020.4
20260906072222 13 48 9.7 12.9 0.00 0.00 0.00 89 1020.4
20260906071718 13 358 12.9 16.1 0.00 0.00 0.00 89 1020.7
20260906071218 13 13 14.5 16.1 0.00 0.00 0.00 89 1020.6
20260906070715 13 17 14.5 16.1 0.00 0.00 0.00 89 1020.9
20260906070210 13 6 16.1 22.5 0.00 0.00 0.00 89 1020.8
20260906065709 13 44 14.5 17.7 0.00 0.00 0.00 88 1020.8
20260906065205 13 4 16.1 17.7 0.00 0.00 0.00 88 1020.9
20260906064701 13 13 11.3 14.5 0.00 0.00 0.00 88 1021.2
20260906064201 13 352 12.9 14.5 0.00 0.00 0.00 88 1021.3
20260906063656 13 355 16.1 16.1 0.00 0.00 0.00 89 1021.4
20260906063152 13 11 17.7 25.7 0.00 0.00 0.00 89 1021.6
20260906062648 13 321 17.7 20.9 0.00 0.00 0.00 89 1021.6
20260906062146 13 342 17.7 22.5 0.00 0.00 0.00 89 1021.6
20260906061642 13 344 9.7 16.1 0.00 0.00 0.00 89 1021.7
20260906061143 13 305 12.9 17.7 0.00 0.00 0.00 89 1021.6
20260906060639 13 304 6.4 6.4 0.00 0.00 0.00 87 1021.8
20260906060136 13 16 6.4 9.7 0.00 0.00 0.00 87 1021.5
20260906055632 13 0 16.1 16.1 0.00 0.25 0.25 87 1021.2
20260906055127 13 2 16.1 17.7 0.00 0.25 0.25 87 1021.2
20260906054622 13 342 14.5 14.5 0.00 0.25 0.25 86 1021.5
20260906054117 13 323 9.7 11.3 0.00 0.25 0.25 88 1021.2
20260906053614 13 331 11.3 14.5 0.00 0.25 0.25 88 1020.9
20260906053114 13 9 8.0 11.3 0.00 0.25 0.25 88 1021.3
20260906052609 13 354 8.0 11.3 0.00 0.25 0.25 87 1021.3
20260906052106 13 344 14.5 16.1 0.00 0.25 0.25 85 1021.2
20260906051602 13 357 12.9 14.5 0.00 0.25 0.25 81 1021.2
20260906051057 13 337 9.7 12.9 0.00 0.25 0.25 84 1021.2
20260906050552 13 10 14.5 20.9 0.00 0.25 0.25 86 1021.4
20260906050047 13 338 14.5 17.7 0.00 0.25 0.25 87 1021.3
20260906045545 13 326 9.7 14.5 0.18 0.25 0.25 89 1021.5
20260906045041 13 330 6.4 9.7 0.18 0.25 0.25 88 1021.3
20260906044536 13 2 12.9 14.5 0.00 0.23 0.23 83 1020.4
20260906044032 13 14 4.8 4.8 0.00 0.23 0.23 84 1021.5
20260906043527 13 353 3.2 3.2 0.00 0.23 0.23 86 1021.8
20260906043024 13 340 4.8 4.8 0.00 0.23 0.23 87 1021.3
20260906042522 13 16 6.4 9.7 0.00 0.23 0.23 87 1020.5
20260906042017 13 27 4.8 4.8 0.00 0.23 0.23 88 1020.7
20260906041514 13 354 9.7 11.3 0.00 0.23 0.23 89 1020.4
20260906041013 13 337 14.5 16.1 0.00 0.23 0.23 89 1020.4
20260906040508 13 343 17.7 20.9 0.00 0.23 0.23 88 1020.6
20260906040004 13 339 9.7 11.3 0.00 0.23 0.23 88 1020.7
20260906035458 13 357 16.1 22.5 0.00 0.23 0.23 88 1020.5
20260906034954 13 22 17.7 20.9 0.00 0.23 0.23 87 1020.6
20260906034454 13 336 14.5 17.7 0.00 0.23 0.23 87 1021.1
20260906033949 13 353 9.7 12.9 0.13 0.23 0.23 87 1021.3
20260906033444 13 354 14.5 16.1 0.43 0.23 0.23 86 1021.5
20260906032940 13 326 6.4 6.4 0.48 0.20 0.20 84 1021.8
20260906032437 15 343 8.0 9.7 0.18 0.15 0.15 79 1021.6
20260906031936 15 247 1.6 1.6 0.00 0.13 0.13 73 1022.2
20260906031431 15 220 0.0 1.6 0.00 0.13 0.13 69 1022.0
20260906030927 15 202 3.2 3.2 0.00 0.13 0.13 68 1021.6
20260906030421 15 325 3.2 3.2 0.00 0.13 0.13 68 1020.8
20260906025916 15 317 3.2 3.2 0.00 0.13 0.13 67 1020.4
20260906025410 15 17 4.8 4.8 0.00 0.13 0.13 67 1020.1
20260906024909 15 5 6.4 9.7 0.00 0.13 0.13 68 1019.8
20260906024408 15 43 4.8 9.7 0.00 0.13 0.13 67 1019.5
20260906023904 15 57 4.8 6.4 0.00 0.13 0.13 67 1019.5
20260906023401 16 26 4.8 4.8 0.00 0.13 0.13 67 1019.2
20260906022900 16 305 8.0 11.3 0.00 0.13 0.13 66 1019.2
20260906022355 16 24 8.0 11.3 0.00 0.13 0.13 66 1019.3
20260906021851 16 333 8.0 9.7 0.00 0.13 0.13 66 1019.3
20260906021350 16 4 11.3 12.9 0.00 0.13 0.13 66 1019.3
20260906020845 16 2 11.3 16.1 0.00 0.13 0.13 65 1019.4
20260906020344 16 345 6.4 6.4 0.00 0.13 0.13 65 1019.3
20260906015840 16 12 8.0 9.7 0.00 0.13 0.13 64 1019.2
20260906015339 16 12 11.3 14.5 0.00 0.13 0.13 65 1019.4
20260906014838 17 9 9.7 9.7 0.00 0.13 0.13 64 1019.3
20260906014333 17 358 9.7 11.3 0.00 0.13 0.13 64 1019.2
20260906013830 17 3 9.7 11.3 0.00 0.13 0.13 64 1019.5
20260906013325 17 350 6.4 9.7 0.00 0.13 0.13 64 1019.3
20260906012820 17 340 9.7 11.3 0.00 0.13 0.13 62 1019.3
20260906012320 17 1 9.7 11.3 0.00 0.13 0.13 62 1019.3
20260906011815 17 47 6.4 6.4 0.00 0.13 0.13 62 1019.2
20260906011309 17 339 9.7 14.5 0.00 0.13 0.13 63 1019.2
20260906010805 17 26 12.9 14.5 0.00 0.13 0.13 63 1019.3
20260906010301 17 349 14.5 16.1 0.00 0.13 0.13 62 1019.3
20260906005756 17 340 14.5 17.7 0.00 0.13 0.13 63 1019.4
20260906005255 17 12 11.3 12.9 0.00 0.13 0.13 63 1019.3
20260906004754 17 351 16.1 20.9 0.00 0.13 0.13 62 1019.4
20260906004250 18 6 14.5 17.7 0.00 0.13 0.13 62 1019.4
20260906003749 18 359 12.9 17.7 0.00 0.13 0.13 60 1019.4
20260906003245 18 358 8.0 9.7 0.00 0.13 0.13 59 1019.2
20260906002740 19 331 11.3 14.5 0.00 0.13 0.13 57 1019.5
20260906002240 20 328 14.5 24.1 0.00 0.13 0.13 55 1019.4
20260906001736 20 357 17.7 22.5 0.00 0.13 0.13 55 1019.6
20260906001231 20 8 14.5 17.7 0.00 0.13 0.13 54 1019.6
20260906000726 20 15 14.5 17.7 0.00 0.13 0.13 53 1019.3
20260906000221 20 343 11.3 14.5 0.00 0.13 0.13 53 1019.3
20260905235721 20 338 14.5 14.5 0.00 0.13 0.13 52 1019.4
20260905235215 20 324 14.5 17.7 0.00 0.13 0.13 52 1019.5
20260905234711 20 324 12.9 16.1 0.00 0.13 0.13 53 1019.8
20260905234206 20 357 16.1 17.7 0.00 0.13 0.13 52 1019.7
20260905233701 20 330 16.1 17.7 0.00 0.13 0.13 53 1019.7
20260905233201 21 338 19.3 27.4 0.00 0.13 0.13 51 1019.5